[[{"header":{"parameterUnit":"m.s-1","parameterCategory":1,"la1":30.2991,"la2":30.254,"lo1":-89.0895,"lo2":-89.0444,"dy":0.0017,"dx":0.0017,"nx":28,"ny":28,"refTime":"2025-07-06T21:00:00:Z","depth":0,"parameterNumber":2,"parameterNumberName":"U-component_of_WINDS"},"data":[0,0,0,0,0,0,0,0,0,0,0,0,0,0,0,0,0,0,0,0,0,0,0,0,0,0,0,0,0,0,0,0,0,0,0,0,0,0,0,0,0,0,0,0,0,0,0,0,0,0,0,0,0,0,0,0,0,0,2.9077,2.9079,0,2.9251,2.9253,2.9255,2.931,2.9309,2.9308,2.9307,2.949,2.9495,2.9501,0,0,0,0,0,0,0,0,0,0,0,0,0,2.8795,2.88,2.9077,2.9079,2.9081,2.9251,2.9253,2.9256,2.931,2.9309,2.9308,2.9307,2.9488,2.9494,2.9501,0,0,0,0,0,0,0,0,0,0,0,0,0,2.8938,2.8801,2.9076,2.9128,2.9135,2.925,2.9253,2.9256,2.931,2.9309,2.9307,2.9306,2.9486,2.9494,2.9502,2.958,0,0,2.9528,2.9532,0,0,0,0,0,0,0,0,2.893,2.8948,2.9119,2.9125,2.9132,2.9257,2.9221,2.9365,2.931,2.9244,2.9307,2.9306,2.9414,2.9428,2.9463,2.9588,2.9596,2.9529,2.9534,2.9537,2.954,0,0,0,0,0,0,0,2.892,2.8941,2.9146,2.9121,2.913,2.9144,2.9163,2.9248,2.9334,2.9249,2.9254,2.9273,2.9417,2.9455,2.9468,2.9599,2.9528,2.9536,2.9541,2.9545,2.9796,2.9798,0,0,0,0,0,0,2.8901,2.8933,2.914,2.9151,2.9026,2.9151,2.9172,2.9219,2.9333,2.9349,2.9274,2.9275,2.9441,2.9458,2.9475,2.9573,2.9537,2.9545,2.955,2.9795,2.9797,2.9799,0,0,0,0,0,0,2.8894,2.8919,2.9133,2.9043,2.9072,2.9157,2.9209,2.9223,2.9261,2.9352,2.9367,2.9297,2.9441,2.9463,2.9553,2.958,2.9549,2.9557,2.9793,2.9795,2.9798,2.9769,0,0,0,0,0,0,2.8886,2.8916,2.8945,2.9043,2.9076,2.9207,2.9211,2.9227,2.9275,2.9278,2.9377,2.9393,2.9442,2.954,2.9561,2.9591,2.9563,2.9791,2.9794,2.9797,2.9768,2.9771,2.9773,0,0,0,0,0,2.8876,2.8931,2.8946,2.8971,2.9114,2.9208,2.9227,2.9281,2.9276,2.9307,2.9366,2.9389,2.9574,2.9549,2.9573,2.9606,2.9789,2.9793,2.9797,2.9767,2.977,2.9772,0,0,0,0,0,0,2.8835,2.8945,2.8963,2.9052,2.912,2.9217,2.9258,2.9283,2.9355,2.9355,2.9421,2.9443,2.9528,2.9576,2.9547,2.9687,2.9683,2.9691,2.9652,2.9655,2.9657,2.9644,2.9571,0,0,0,0,0,2.8836,2.8902,2.8995,2.9065,2.9098,2.9172,2.9215,2.9251,2.9325,2.9354,2.942,2.9492,2.9566,2.9614,2.9687,2.9776,2.9799,2.9811,2.9813,2.9814,2.9821,2.9871,2.9878,2.981,2.981,2.981,0,0,2.884,2.8908,2.8946,2.9058,2.9115,2.9183,2.9196,2.9267,2.9319,2.9366,2.9454,2.9505,2.959,2.9679,2.9722,2.9723,2.9845,2.9819,2.9819,2.9825,2.9876,2.9882,2.9888,2.9813,2.9812,2.9812,0,0,2.888,2.8938,2.9002,2.9059,2.9146,2.9195,2.921,2.9304,2.9339,2.9428,2.9465,2.9528,2.9655,2.9714,2.976,2.9824,2.9849,2.9847,2.9857,2.9906,2.9911,2.9916,2.9939,2.9946,2.9853,2.9853,2.9853,0,2.8874,2.8976,2.9032,2.9102,2.915,2.9195,2.9261,2.9314,2.9421,2.9454,2.9452,2.9612,2.9673,2.9777,2.9792,2.9829,2.9849,2.9835,2.9906,2.9911,2.9917,2.9939,2.9947,2.9852,2.9852,2.9852,2.9852,0,2.8964,2.9035,2.9076,2.9176,2.923,2.9297,2.9365,2.9413,2.9444,2.9493,2.9585,2.9659,2.9748,2.9776,2.9808,2.9885,2.9882,2.9892,2.9889,2.9921,2.9943,2.9952,2.9851,2.9851,2.9851,2.9852,0,0,2.8983,2.9113,2.9127,2.9173,2.9272,2.9329,2.9399,2.9485,2.9525,2.9597,2.9658,2.9764,2.9774,2.9827,2.9866,2.9909,2.9954,2.9914,2.9917,2.9919,3.0044,3.0034,3.0043,2.9972,2.9974,2.9975,3.0036,0,2.9035,2.916,2.9213,2.9314,2.9381,2.9425,2.9486,2.9554,2.9603,2.9667,2.9722,2.9795,2.9803,2.9836,2.988,2.9939,2.998,2.9936,3.0029,3.0032,3.0005,3.0055,3.0046,3.01,3.0045,3.0047,3.0048,0,2.9113,2.9184,2.9291,2.9383,2.9413,2.9466,2.955,2.9611,2.9689,2.9722,2.978,2.9818,2.9894,2.9886,2.9993,2.9961,3.0003,3.0038,3.0042,3.0052,3.0041,3.0066,3.0118,3.0126,3.0062,3.0061,3.006,0,2.9115,2.9238,2.9318,2.9356,2.9465,2.9502,2.9549,2.9626,2.9675,2.9748,2.978,2.9862,2.9907,2.997,3.0029,3.0018,3.013,3.0127,3.016,3.0158,3.018,3.0178,3.0239,3.0209,3.0208,3.0208,3.0208,0,2.9167,2.9231,2.932,2.9369,2.9443,2.9504,2.9575,2.9626,2.9694,2.9755,2.9799,2.9856,2.993,2.9997,3.0044,3.0125,3.0145,3.0174,3.0185,3.0169,3.0165,3.0197,3.0194,3.0211,3.021,3.021,3.0209,0,2.9181,2.9243,2.9333,2.9429,2.9454,2.9504,2.9586,2.9637,2.9687,2.9764,2.9785,2.9865,2.9946,3.0011,3.0116,3.0148,3.0233,3.0246,3.0205,3.0211,3.024,3.0236,3.0323,3.0337,3.0297,3.0297,3.0297,0,2.921,2.926,2.936,2.9403,2.945,2.9519,2.9568,2.9631,2.9681,2.9775,2.9814,2.9897,2.9967,3.0093,3.0162,3.0243,3.0258,3.0283,3.0271,3.0253,3.0258,3.0254,3.0259,3.0284,3.0284,3.0284,3.0285,0,2.9254,2.9282,2.9351,2.9431,2.9489,2.9555,2.9623,2.9656,2.9731,2.9786,2.9867,2.9921,3.0029,3.0111,3.0199,3.025,3.028,3.0288,3.03,3.0283,3.0257,3.0271,3.0208,3.0286,3.0285,3.0285,3.0285,3.0285,2.9276,2.9322,2.94,2.9476,2.9533,2.9595,2.9647,2.9704,2.9773,2.9864,2.9898,2.9982,3.006,3.0182,3.0233,3.03,3.0303,3.032,3.0325,3.0327,3.0325,3.0247,3.0317,3.0317,3.0317,3.0317,3.0317,0,2.9322,2.9374,2.9443,2.9536,2.9595,2.9618,2.9694,2.9743,2.9816,2.9886,2.9953,3.0048,3.0128,3.0203,3.0287,3.0327,3.0343,3.0347,3.0344,3.0355,3.0318,3.0299,3.0332,3.0332,3.0332,3.0332,3.0332,3.0332,2.9353,2.9432,2.947,2.9579,2.9632,2.9714,2.9755,2.9813,2.9869,2.9972,3.0039,3.0086,3.0159,3.0249,3.0324,3.0344,3.0373,3.0373,3.0396,3.036,3.0358,3.0355,3.0338,3.0378,3.0379,3.0428,3.0428,3.0428]},{"header":{"parameterUnit":"m.s-1","parameterCategory":1,"la1":30.2991,"la2":30.254,"lo1":-89.0895,"lo2":-89.0444,"dy":0.0017,"dx":0.0017,"nx":28,"ny":28,"refTime":"2025-07-06T21:00:00:Z","depth":0,"parameterNumber":3,"parameterNumberName":"V-component_of_WINDS"},"data":[0,0,0,0,0,0,0,0,0,0,0,0,0,0,0,0,0,0,0,0,0,0,0,0,0,0,0,0,0,0,0,0,0,0,0,0,0,0,0,0,0,0,0,0,0,0,0,0,0,0,0,0,0,0,0,0,0,0,3.9804,3.9804,0,3.9841,3.9841,3.9842,3.9852,3.9852,3.9851,3.9851,3.9885,3.9886,3.9887,0,0,0,0,0,0,0,0,0,0,0,0,0,3.9736,3.9737,3.9804,3.9804,3.9805,3.9841,3.9841,3.9842,3.9852,3.9852,3.9851,3.9851,3.9884,3.9885,3.9887,0,0,0,0,0,0,0,0,0,0,0,0,0,3.9768,3.9737,3.9804,3.9814,3.9816,3.9841,3.9841,3.9842,3.9852,3.9851,3.9851,3.9851,3.9884,3.9885,3.9887,3.9903,0,0,3.9892,3.9893,0,0,0,0,0,0,0,0,3.9766,3.9771,3.9812,3.9814,3.9815,3.9842,3.983,3.9862,3.9852,3.9838,3.9851,3.9851,3.987,3.9873,3.988,3.9905,3.9906,3.9892,3.9893,3.9894,3.9894,0,0,0,0,0,0,0,3.9764,3.9769,3.9818,3.9813,3.9815,3.9815,3.9819,3.9836,3.9855,3.9839,3.984,3.9844,3.9871,3.9879,3.9881,3.9907,3.9892,3.9893,3.9894,3.9895,3.9944,3.9944,0,0,0,0,0,0,3.9761,3.9767,3.9817,3.982,3.979,3.9817,3.9821,3.9833,3.9855,3.9858,3.9845,3.9845,3.9876,3.9879,3.9882,3.9902,3.9894,3.9895,3.9896,3.9943,3.9944,3.9944,0,0,0,0,0,0,3.9759,3.9765,3.9816,3.9794,3.98,3.9818,3.9831,3.9834,3.9842,3.9859,3.9862,3.985,3.9876,3.988,3.9898,3.9903,3.9896,3.9897,3.9943,3.9944,3.9944,3.9941,0,0,0,0,0,0,3.9757,3.9765,3.9773,3.9794,3.9801,3.9832,3.9832,3.9835,3.9846,3.9846,3.9865,3.9868,3.9876,3.9895,3.9899,3.9905,3.9899,3.9943,3.9943,3.9944,3.9941,3.9941,3.9942,0,0,0,0,0,3.9755,3.977,3.9773,3.9779,3.9812,3.9833,3.9837,3.9848,3.9846,3.9853,3.9863,3.9867,3.9902,3.9897,3.9902,3.9908,3.9942,3.9943,3.9944,3.994,3.9941,3.9942,0,0,0,0,0,0,3.9747,3.9773,3.9777,3.9799,3.9814,3.9834,3.9844,3.9848,3.9863,3.9862,3.9874,3.9878,3.9894,3.9903,3.9897,3.9924,3.9922,3.9924,3.9918,3.9919,3.9919,3.9916,3.99,0,0,0,0,0,3.9749,3.9765,3.9786,3.9803,3.9811,3.9826,3.9835,3.9842,3.9857,3.9863,3.9875,3.9888,3.9902,3.9911,3.9924,3.9942,3.9945,3.9948,3.9949,3.9949,3.995,3.9958,3.996,3.9947,3.9947,3.9947,0,0,3.9751,3.9767,3.9776,3.9802,3.9814,3.9829,3.9831,3.9847,3.9857,3.9865,3.9883,3.9892,3.9907,3.9924,3.9932,3.9932,3.9955,3.995,3.995,3.9951,3.9959,3.996,3.9961,3.9947,3.9947,3.9947,0,0,3.9762,3.9777,3.9792,3.9805,3.9823,3.9833,3.9837,3.9856,3.9863,3.9881,3.9886,3.9898,3.9922,3.9932,3.994,3.9953,3.9956,3.9957,3.996,3.9968,3.9969,3.997,3.9973,3.9975,3.9958,3.9958,3.9958,0,3.9762,3.9787,3.9799,3.9815,3.9825,3.9834,3.9848,3.9859,3.988,3.9886,3.9886,3.9915,3.9926,3.9945,3.9948,3.9955,3.9958,3.9955,3.9968,3.9969,3.997,3.9974,3.9975,3.9958,3.9958,3.9958,3.9958,0,3.9785,3.9801,3.9811,3.9833,3.9844,3.9859,3.9872,3.9882,3.9887,3.9896,3.9913,3.9926,3.9942,3.9947,3.9952,3.9966,3.9965,3.9966,3.9964,3.9971,3.9975,3.9976,3.9958,3.9958,3.9958,3.9958,0,0,3.9794,3.9821,3.9825,3.9834,3.9854,3.9866,3.988,3.9897,3.9904,3.9918,3.9929,3.9948,3.9949,3.9958,3.9965,3.9972,3.9979,3.9971,3.9972,3.9972,3.9994,3.9992,3.9994,3.9982,3.9982,3.9982,3.9992,0,3.9807,3.9835,3.9845,3.9867,3.9881,3.9888,3.99,3.9913,3.9921,3.9933,3.9942,3.9955,3.9956,3.9961,3.9968,3.9977,3.9984,3.9976,3.999,3.9991,3.9986,3.9996,3.9995,4.0004,3.9994,3.9994,3.9994,0,3.9827,3.9842,3.9865,3.9882,3.9888,3.9899,3.9914,3.9926,3.994,3.9945,3.9955,3.996,3.9973,3.9971,3.9988,3.9983,3.9988,3.9993,3.9994,3.9995,3.9993,3.9997,4.0007,4.0008,3.9996,3.9996,3.9996,0,3.9829,3.9855,3.9872,3.988,3.9901,3.9908,3.9916,3.993,3.9938,3.9951,3.9956,3.997,3.9977,3.9986,3.9994,3.9992,4.001,4.0009,4.0013,4.0013,4.0017,4.0016,4.0028,4.0022,4.0022,4.0021,4.0021,0,3.9843,3.9856,3.9873,3.9884,3.9898,3.9909,3.9923,3.9932,3.9943,3.9954,3.9961,3.997,3.9981,3.9991,3.9997,4.001,4.0013,4.0016,4.0018,4.0016,4.0015,4.0019,4.0019,4.0022,4.0022,4.0022,4.0022,0,3.9848,3.986,3.9879,3.9897,3.9902,3.9911,3.9926,3.9935,3.9943,3.9957,3.996,3.9973,3.9985,3.9995,4.001,4.0014,4.0027,4.0029,4.0023,4.0024,4.0028,4.0027,4.0042,4.0044,4.0037,4.0037,4.0037,0,3.9856,3.9866,3.9885,3.9894,3.9902,3.9916,3.9925,3.9935,3.9944,3.9959,3.9966,3.9979,3.999,4.0009,4.0019,4.003,4.0032,4.0036,4.0034,4.0031,4.0031,4.003,4.003,4.0036,4.0036,4.0036,4.0036,0,3.9867,3.9872,3.9886,3.9901,3.9912,3.9924,3.9936,3.9942,3.9954,3.9963,3.9976,3.9985,4.0001,4.0013,4.0026,4.0032,4.0036,4.0037,4.0039,4.0036,4.0032,4.0034,4.0023,4.0037,4.0037,4.0037,4.0037,4.0037,3.9873,3.9882,3.9897,3.9911,3.9921,3.9932,3.9942,3.9951,3.9963,3.9978,3.9983,3.9996,4.0007,4.0024,4.0031,4.0041,4.0041,4.0043,4.0044,4.0044,4.0043,4.0031,4.0043,4.0043,4.0043,4.0043,4.0043,0,3.9884,3.9894,3.9907,3.9924,3.9934,3.9938,3.9951,3.9959,3.9971,3.9982,3.9993,4.0007,4.0019,4.0029,4.004,4.0046,4.0047,4.0048,4.0048,4.0049,4.0043,4.004,4.0047,4.0047,4.0047,4.0047,4.0047,4.0047,3.9891,3.9907,3.9913,3.9933,3.9942,3.9956,3.9963,3.9972,3.9981,3.9997,4.0007,4.0014,4.0024,4.0036,4.0047,4.0049,4.0053,4.0053,4.0056,4.005,4.005,4.0049,4.0047,4.0054,4.0054,4.0061,4.0061,4.0061]}]]